Regional Weather Roundup
Issued by NWS

Home | Current Version | Previous Version | Text Only | Print | Product List | Glossary On
Versions: 1 2 3 4 5 6 7 8 9 10 11 12 13 14 15 16 17 18 19 20 21 22 23 24 25 26 27 28 29 30 31 32 33 34 35 36 37 38 39 40 41 42 43 44 45 46 47 48 49 50
822
ASUS46 KSEW 032310
RWRWA

WASHINGTON REGIONAL WEATHER ROUNDUP
NATIONAL WEATHER SERVICE SEATTLE WA
300 PM PST SAT DEC 03 2016

NOTE:"FAIR" INDICATES FEW OR NO CLOUDS BELOW 12,000 FEET WITH NO
SIGNIFICANT WEATHER AND/OR OBSTRUCTIONS TO VISIBILITY.

WAZ507-509-555>559-040000-
SEATTLE, TACOMA, EVERETT, AND VICINITY

CITY           SKY/WX    TMP DP  RH WIND       PRES   REMARKS
EVERETT        CLOUDY    46  41  82 S16       30.21F
BOEING FIELD   CLOUDY    49  42  77 S9        30.25S
RENTON         CLOUDY    49  41  74 SE10      30.25F
SEATAC AIRPORT CLOUDY    47  41  80 SW15G22   30.25F
JBLM-MCCHORD   LGT RAIN  46  46  99 SW6       30.28S
PUYALLUP       CLOUDY    46  43  87 VRB5      30.27F
BREMERTON      MOCLDY    45  43  93 S13       30.26S
JBLM-FT LEWIS  LGT RAIN  46  46 100 S6        30.27F
TACOMA NARROWS CLOUDY    46  43  89 S12       30.27S
$$

WAZ001-503-506-510-514-515-040000-
NORTH INTERIOR

CITY           SKY/WX    TMP DP  RH WIND       PRES   REMARKS
BELLINGHAM     LGT RAIN  46  42  86 S12       30.16F
FRIDAY HARBOR  LGT RAIN  47  42  83 S8        30.19F
EASTSOUND      LGT RAIN  46  43  87 S7        30.16F
PORT ANGELES   LGT RAIN  48  40  73 CALM      30.18F
EDIZ HOOK      CLOUDY    48  41  75 E8        30.18F
PORT TOWNSEND  MOCLDY    46  45  93 CALM      30.19F
NAS WHIDBEY    CLOUDY    48  39  71 SE10      30.23F
ARLINGTON      CLOUDY    46  36  66 SE12      30.23F
BURLINGTON     CLOUDY    46  43  87 S6        30.20F
$$

WAZ020-022-039-040-504-511-512-040000-
SOUTHWEST INTERIOR

CITY           SKY/WX    TMP DP  RH WIND       PRES   REMARKS
SHELTON        LGT RAIN  48  44  86 S7        30.23S
OLYMPIA        LGT RAIN  46  45  96 S8        30.28S
CHEHALIS       PTSUNNY   48  46  93 S7        30.29F
KELSO          CLOUDY    48  46  93 S6        30.32F
VANCOUVER      LGT RAIN  50  44  80 NW3       30.33F
SCAPPOOSE, OR  LGT RAIN  49  44  83 S5        30.32F
PORTLAND, OR   CLOUDY    52  43  71 SW8       30.33F
$$

WAZ021-516-517-040000-
WASHINGTON COAST

CITY           SKY/WX    TMP DP  RH WIND       PRES   REMARKS
FORKS          CLOUDY    48  43  82 SW10      30.19F
HOQUIAM        CLOUDY    50  45  83 W12       30.26R
ASTORIA, OR    CLOUDY    52  42  69 SW9       30.28F
$$

WAZ019-023-024-040-567>569-040000-
CASCADE MOUNTAINS AND COLUMBIA GORGE

CITY           SKY/WX    TMP DP  RH WIND       PRES   REMARKS
STAMPEDE PASS  SNOW      31  31 100 W10G22    30.12F VSB 1/4 WCI  22
TROUTDALE, OR  CLOUDY    52  42  69 SW10      30.33F
THE DALLES, OR LGT RAIN  52  37  56 NW10      30.26F
$$

WAZ026-027-041>044-520-521-040000-
EAST SLOPES

CITY           SKY/WX    TMP DP  RH WIND       PRES   REMARKS
OMAK           CLOUDY    39  32  76 S6        30.11R
WENATCHEE      PTCLDY    47  34  60 SE5       30.10F
ELLENSBURG     MOCLDY    45  33  63 NW21      30.14F
YAKIMA         PTCLDY    52  32  46 VRB3      30.15F
$$

WAZ028-034-035-040000-
COLUMBIA BASIN

CITY           SKY/WX    TMP DP  RH WIND       PRES   REMARKS
EPHRATA        MOCLDY    47  30  51 SW8       30.11F
MOSES LAKE     PTCLDY    47  31  53 SW15G24   30.12F
PASCO          CLOUDY    52  36  54 SW15G26   30.20F
HERMISTON, OR  MOCLDY    52  33  48 W18G29    30.22S
$$

WAZ036>038-040000-
NORTHEAST WASHINGTON

CITY           SKY/WX    TMP DP  RH WIND       PRES   REMARKS
SPOKANE GEIGER CLOUDY    40  31  70 SW18      30.10F
SPOKANE FELTS  CLOUDY    43  33  68 SW9       30.12F
FAIRCHILD AFB  CLOUDY    39  32  78 SW10      30.10F
COEURDALENE,ID CLOUDY    40  33  76 SW12      30.11F
DEER PARK      CLOUDY    40  33  76 S9        30.10F
$$

WAZ029>033-040000-
SOUTHEAST WASHINGTON

CITY           SKY/WX    TMP DP  RH WIND       PRES   REMARKS
PULLMAN        CLOUDY    41  33  73 SW15      30.18R
LEWISTON, ID   CLOUDY    47  34  60 SW5       30.20R
WALLA WALLA    CLOUDY    48  35  60 SW10      30.22R
PENDLETON, OR  MOCLDY    47  35  63 W15       30.22R
$$




USA.gov is the U.S. government's official web portal to all federal, state and local government web resources and services.